Date String (YYYY-MM-DD hh:mm:ss) UTC,Instrument flags,Ambient pressure (hPa),Sample flow (lpm),Bypass flow (lpm),Sample temperature (°C),Ambient temperature (°C),ASC tube jacket temperature (°C),LED temperature (°C),Box temperature (°C),Sample RH (%),Span deviation,Mass concentration (μg/m³),Mass concentration (μg/m³),Mass concentration (μg/m³)
DateTimeUTC,F1_M11,P_M11,Q1_M11,Q2_M11,T1_M11,T2_M11,T3_M11,T4_M11,T5_M11,U1_M11,ZSPAN_M11,X0_M11,X2_M11,X1_M11
2022-04-14 09:00:00,,0821.9,4.99,0.00,22.1,21.0,00.0,31.3,23.8,06.4,0000.0,0004.48,0001.67,0001.15
2022-04-14 09:01:00,,0821.9,5.00,0.00,22.1,20.9,00.0,31.3,23.7,06.9,0000.0,0004.30,0001.65,0001.16
2022-04-14 09:02:00,,0821.8,5.00,0.00,22.1,21.4,00.0,31.3,23.8,07.0,0000.0,0004.24,0001.67,0001.15
2022-04-14 09:03:00,,0821.8,5.00,0.00,22.2,22.4,00.0,31.3,24.1,07.1,0000.0,0004.37,0001.70,0001.15
2022-04-14 09:04:00,,0821.9,5.01,0.00,22.4,23.1,00.0,31.4,24.3,07.2,0000.0,0004.46,0001.73,0001.15
2022-04-14 09:05:00,,0821.8,5.00,0.00,22.4,23.0,00.0,31.3,24.3,07.2,0000.0,0004.33,0001.71,0001.15
2022-04-14 09:06:00,,0821.9,5.01,0.00,22.4,22.5,00.0,31.3,24.2,07.4,0000.0,0004.32,0001.76,0001.16
2022-04-14 09:07:00,,0822.0,4.99,0.00,22.3,22.1,00.0,31.3,24.0,07.6,0000.0,0004.52,0001.80,0001.19
2022-04-14 09:08:00,,0821.8,5.00,0.00,22.2,21.8,00.0,31.3,23.9,07.7,0000.0,0005.17,0001.82,0001.20
2022-04-14 09:09:00,,0821.8,5.00,0.00,22.2,21.5,00.0,31.3,23.8,07.9,0000.0,0005.44,0001.88,0001.22
2022-04-14 09:10:00,,0822.1,4.99,0.00,22.1,21.3,00.0,31.3,23.7,08.1,0000.0,0005.22,0001.90,0001.23
2022-04-14 09:11:00,,0821.8,5.00,0.00,22.0,21.2,00.0,31.2,23.6,08.2,0000.0,0004.22,0001.91,0001.23
2022-04-14 09:12:00,,0821.8,5.01,0.00,22.0,21.0,00.0,31.2,23.5,08.3,0000.0,0004.45,0001.96,0001.23
2022-04-14 09:13:00,,0821.8,5.01,0.00,21.9,20.8,00.0,31.2,23.4,08.3,0000.0,0004.93,0001.98,0001.25
2022-04-14 09:14:00,,0821.8,4.99,0.00,21.8,20.7,00.0,31.1,23.4,08.4,0000.0,0004.95,0002.00,0001.26
2022-04-14 09:15:00,,0822.0,5.00,0.00,21.8,20.7,00.0,31.1,23.4,08.5,0000.0,0004.91,0001.99,0001.26
2022-04-14 09:16:00,,0822.1,5.00,0.00,21.8,20.7,00.0,31.1,23.4,08.5,0000.0,0005.04,0002.04,0001.28
2022-04-14 09:17:00,,0821.8,5.00,0.00,21.8,20.8,00.0,31.0,23.4,08.5,0000.0,0005.31,0002.04,0001.29
2022-04-14 09:18:00,,0821.9,5.01,0.00,21.8,21.4,00.0,31.1,23.6,08.4,0000.0,0005.45,0002.11,0001.29
2022-04-14 09:19:00,,0821.8,5.00,0.00,22.0,22.4,00.0,31.1,23.9,08.2,0000.0,0005.24,0002.10,0001.29
2022-04-14 09:20:00,,0821.8,5.01,0.00,22.1,23.1,00.0,31.1,24.2,08.2,0000.0,0005.03,0002.04,0001.26
2022-04-14 09:21:00,,0821.8,4.98,0.00,22.2,22.9,00.0,31.1,24.2,08.1,0000.0,0005.06,0002.03,0001.26
2022-04-14 09:22:00,,0821.7,5.00,0.00,22.2,22.5,00.0,31.1,24.0,07.9,0000.0,0004.94,0001.99,0001.24
2022-04-14 09:23:00,,0821.8,5.02,0.00,22.2,22.2,00.0,31.1,23.9,07.9,0000.0,0004.79,0001.97,0001.23
2022-04-14 09:24:00,,0821.8,5.00,0.00,22.1,21.9,00.0,31.1,23.8,07.9,0000.0,0004.20,0001.91,0001.21
2022-04-14 09:25:00,,0821.8,4.98,0.00,22.1,21.7,00.0,31.1,23.8,08.0,0000.0,0004.19,0001.90,0001.21
2022-04-14 09:26:00,,0821.7,5.01,0.00,22.0,21.5,00.0,31.1,23.7,08.1,0000.0,0004.92,0001.90,0001.22
2022-04-14 09:27:00,,0821.7,5.00,0.00,22.0,21.3,00.0,31.1,23.6,08.2,0000.0,0005.55,0001.83,0001.20
2022-04-14 09:28:00,,0821.7,5.01,0.00,21.9,21.1,00.0,31.1,23.5,08.2,0000.0,0005.78,0001.77,0001.17
2022-04-14 09:29:00,,0821.7,5.01,0.00,21.9,21.0,00.0,31.0,23.4,08.0,0000.0,0005.59,0001.73,0001.17
2022-04-14 09:30:00,,0821.7,5.00,0.00,21.8,20.9,00.0,31.0,23.3,08.1,0000.0,0005.28,0001.73,0001.17
2022-04-14 09:31:00,,0821.6,5.00,0.00,21.7,20.8,00.0,31.0,23.3,08.2,0000.0,0005.17,0001.74,0001.18
2022-04-14 09:32:00,,0821.6,4.99,0.00,21.7,20.7,00.0,30.9,23.2,08.1,0000.0,0005.14,0001.76,0001.18
2022-04-14 09:33:00,,0821.7,5.00,0.00,21.6,20.6,00.0,30.9,23.2,08.1,0000.0,0005.25,0001.81,0001.20
2022-04-14 09:34:00,,0821.7,5.00,0.00,21.6,20.7,00.0,30.9,23.2,08.1,0000.0,0005.61,0001.82,0001.20
2022-04-14 09:35:00,,0821.6,5.00,0.00,21.7,21.5,00.0,30.9,23.4,08.1,0000.0,0005.66,0001.81,0001.20
2022-04-14 09:36:00,,0821.7,5.00,0.00,21.9,22.4,00.0,30.9,23.7,08.1,0000.0,0005.81,0001.80,0001.18
2022-04-14 09:37:00,,0821.7,5.01,0.00,22.0,23.1,00.0,31.0,24.0,08.0,0000.0,0005.01,0001.76,0001.16
2022-04-14 09:38:00,,0821.7,4.99,0.00,22.1,22.9,00.0,31.0,24.0,08.0,0000.0,0004.39,0001.77,0001.16
2022-04-14 09:39:00,,0821.6,5.00,0.00,22.1,22.6,00.0,31.0,24.0,08.1,0000.0,0003.85,0001.78,0001.17
2022-04-14 09:40:00,,0821.7,5.01,0.00,22.1,22.2,00.0,31.0,23.9,08.1,0000.0,0003.81,0001.80,0001.17
2022-04-14 09:41:00,,0821.6,4.98,0.00,22.0,21.9,00.0,31.0,23.7,08.3,0000.0,0004.02,0001.89,0001.17
2022-04-14 09:42:00,,0821.5,5.01,0.00,22.0,21.6,00.0,31.0,23.7,08.3,0000.0,0004.23,0001.91,0001.17
2022-04-14 09:43:00,,0821.6,5.00,0.00,21.9,21.4,00.0,31.0,23.6,08.2,0000.0,0004.36,0001.87,0001.16
2022-04-14 09:44:00,,0821.7,5.01,0.00,21.9,21.2,00.0,31.0,23.5,08.2,0000.0,0004.46,0001.87,0001.17
2022-04-14 09:45:00,,0821.7,5.00,0.00,21.8,21.0,00.0,30.9,23.4,08.3,0000.0,0004.33,0001.86,0001.16
2022-04-14 09:46:00,,0821.7,4.99,0.00,21.7,20.9,00.0,30.9,23.3,08.3,0000.0,0004.30,0001.89,0001.17
2022-04-14 09:47:00,,0821.6,5.00,0.00,21.7,20.8,00.0,30.9,23.2,08.3,0000.0,0004.02,0001.88,0001.20
2022-04-14 09:48:00,,0821.5,5.00,0.00,21.6,20.7,00.0,30.9,23.1,08.5,0000.0,0003.94,0001.89,0001.21
2022-04-14 09:49:00,,0821.6,5.00,0.00,21.6,20.6,00.0,30.8,23.1,08.4,0000.0,0003.91,0001.90,0001.22
2022-04-14 09:50:00,,0821.7,5.00,0.00,21.5,20.5,00.0,30.8,23.1,08.3,0000.0,0003.96,0001.88,0001.23
2022-04-14 09:51:00,,0821.7,4.99,0.00,21.5,20.7,00.0,30.8,23.1,08.4,0000.0,0004.11,0001.86,0001.22
2022-04-14 09:52:00,,0821.6,5.01,0.00,21.6,21.6,00.0,30.8,23.4,08.3,0000.0,0004.66,0001.85,0001.23
2022-04-14 09:53:00,,0821.7,5.01,0.00,21.8,22.5,00.0,30.8,23.7,08.3,0000.0,0004.48,0001.83,0001.23
2022-04-14 09:54:00,,0821.7,4.99,0.00,21.9,22.9,00.0,30.9,23.9,08.1,0000.0,0005.29,0001.81,0001.23
2022-04-14 09:55:00,,0821.7,5.00,0.00,22.0,22.6,00.0,30.9,23.9,08.0,0000.0,0005.60,0001.78,0001.22
2022-04-14 09:56:00,,0821.7,5.00,0.00,22.0,22.2,00.0,30.9,23.8,07.9,0000.0,0005.46,0001.80,0001.21
2022-04-14 09:57:00,,0821.7,5.01,0.00,21.9,22.0,00.0,30.9,23.8,07.9,0000.0,0005.36,0001.79,0001.21
2022-04-14 09:58:00,,0821.6,4.99,0.00,22.0,21.8,00.0,30.9,23.7,07.8,0000.0,0005.42,0001.79,0001.20
2022-04-14 09:59:00,,0821.5,5.01,0.00,21.9,21.6,00.0,30.9,23.7,07.8,0000.0,0005.37,0001.77,0001.20
